Location: Pacheco
(37.9835°N, 122.0752°W)
Time: 17:18:54
(UTC+00:00)

FENGYUN 1C DEB - Visible Passes

Search period start: 08 September 2024 00:00
Search period end: 18 September 2024 00:00
Orbit: 788 x 962 km, 98.6° (Epoch: 07 September)

Date Brightness Start Highest point End Pass type
(mag) Time Alt. Az. Time Alt. Az. Time Alt. Az.
08 Sep ? 08:39:02 10° NNE 08:40:10 16° NNE 08:40:10 16° NNE visible
08 Sep ? 10:21:15 10° NNW 10:22:41 15° NNW 10:22:41 15° NNW visible
09 Sep ? 08:34:21 10° NNE 08:35:19 15° NNE 08:35:19 15° NNE visible
09 Sep ? 10:16:23 10° NNW 10:17:50 16° NNW 10:17:50 16° NNW visible
10 Sep ? 08:29:40 10° NNE 08:30:25 14° NNE 08:30:25 14° NNE visible
10 Sep ? 10:11:30 10° NNW 10:12:56 16° NNW 10:12:56 16° NNW visible
11 Sep ? 08:24:57 10° NNE 08:25:29 13° NNE 08:25:29 13° NNE visible
11 Sep ? 10:06:35 10° N 10:07:59 16° NNW 10:07:59 16° NNW visible
12 Sep ? 08:20:10 10° NNE 08:20:30 11° NNE 08:20:30 11° NNE visible
12 Sep ? 10:01:38 10° N 10:03:00 16° NNW 10:03:00 16° NNW visible
13 Sep ? 08:15:23 10° NNE 08:15:27 10° NNE 08:15:27 10° NNE visible
13 Sep ? 09:56:39 10° N 09:57:57 16° NNW 09:57:57 16° NNW visible
14 Sep ? 09:51:36 10° N 09:52:52 16° N 09:52:52 16° N visible
15 Sep ? 09:46:33 10° N 09:47:44 16° N 09:47:44 16° N visible
16 Sep ? 09:41:28 10° N 09:42:34 16° N 09:42:34 16° N visible
17 Sep ? 09:36:20 10° N 09:37:20 15° N 09:37:20 15° N visible
